Погода в Мужинове

Россия / Брянская область     53°15′15″N   33°15′44″E
темп.,
°C
ветер,
м/с
пор.,
м/с
влажн.,
%
обл.,
%
осадки,
мм/ч
давл.,
гПа
погр.,
м
21 апреля, ср
ср2100:00+3св3694100 0.0 1009397
03:00+3ссв3595100 0.1 1009387
06:00+3сз2593100 0.0 1008378
09:00+4зсз3584100 0.0 1009615
12:00+6зсз246790 0.0 10091135
15:00+8юз2465100 0.0 10101109
18:00+7ююз357688 0.1 1010710
21:00+5ююз399091 0.3 1012283
22 апреля, чт
чт2200:00+5ю4108999 0.1 1012347
03:00+5ю41089100 0.1 1013337
06:00+4ю310955 0.2 1013291
09:00+9ююз487968 0.2 1014435
12:00+14ююз686252 0.2 10131188
15:00+15юз7105945 2.2 10131833
18:00+13ююз6107040 1.1 1013988
21:00+9ю5148216 1.7 1013430
23 апреля, пт
пт2300:00+9ююз5128697 0.2 1013481
03:00+7ю389637 0.3 1013240
06:00+6ю3898100 0.1 1013281
09:00+4сз4796100 1.4 1015394
12:00+6юз2483100 3.6 1015602
15:00+9зюз3561100 3.7 10141437
18:00+7зюз2371100 0.1 1014628
21:00+5ююз2480100 0.3 101395
24 апреля, сб
сб2400:00+4сз3682100 0.1 1012200
03:00+3зсз3787100 0.2 1012237
06:00+1з26895 0.0 1012161
09:00+5зсз46580 0.0 1012801
12:00+8з5749100 0.1 10122021
15:00+8з6754100 1.0 10111703
18:00+7з486168 1.0 10111617
21:00+3з397569 1.0 1013285
25 апреля, вс
вс2500:00+1зюз388530 0.0 1013198
03:000зюз389010 0.0 1013208
06:000зюз3109216 0.0 1013344
09:00+4зюз610605 0.0 10131300
12:00+6зюз7114290 0.0 10122316
15:00+6зюз7955100 0.3 10121904
18:00+4зюз61069100 0.9 10121377
21:00+2зюз512795 0.9 1012532